Location: Eindhoven
(51.4416°N, 5.4697°E)
Time: 14:11:36
(UTC+01:00)

deb Explorer IX - Pass Details

Date: 17 November 2019
Orbit: 546 x 1104 km, 38.8° (Epoch: 12 December)

Event Time Altitude Azimuth Distance (km) Brightness Sun altitude
Rises 05:42:50 0° 252° (WSW) 3,262 - -20.9°
Reaches altitude 10° 05:46:15 10° 232° (SW) 2,211 - -20.3°
Exits shadow 05:48:15 15° 211° (SSW) 1,803 ? -20.0°
Maximum altitude 05:49:25 17° 194° (SSW) 1,703 ? -19.8°
Drops below altitude 10° 05:52:20 10° 155° (SSE) 2,010 ? -19.4°
Sets 05:55:15 0° 134° (SE) 2,833 ? -18.9°
